This demonstration page uses our WeatherBlox Daily Observations layout. Learn more.

Left ArrowRight Arrow

39.95238, -75.16362

Hourly Observations for February 8, 2017

Temp ( °F °C ) Dew Point ( °F °C ) Humidity (%) Winds ( mph kmh ) Pressure ( in mb ) Visibility ( mi km ) Precip ( " mm )
12:54 am 00:54 Cloudy 62 16.7 51 10.6 67 67 SSW 21 33 29.54 1000 10 16 0.00 0.00
1:54 am 01:54 Cloudy 61 16.1 52 11.1 72 72 SW 18 30 29.54 1000 10 16 0.00 0.00
2:54 am 02:54 Cloudy with Light Rain 61 16.1 52 11.1 72 72 SSW 13 20 29.54 1001 10 16 0.00 0.03
3:54 am 03:54 Cloudy 61 16.1 52 11.1 72 72 SSW 14 22 29.55 1001 10 16 0.00 0.03
4:54 am 04:54 Cloudy 60 15.6 52 11.1 75 75 SW 12 19 29.55 1001 10 16 0.00 0.00
5:54 am 05:54 Mostly Cloudy 59 15 52 11.1 78 78 WSW 12 19 29.57 1001 10 16 0.00 0.00
6:54 am 06:54 Mostly Cloudy 58 14.4 51 10.6 78 78 SW 10 17 29.58 1002 10 16 0.00 0.00
7:54 am 07:54 Mostly Cloudy 55 12.8 51 10.6 87 87 WSW 7 11 29.60 1002 10 16 0.00 0.00
8:54 am 08:54 Mostly Cloudy 58 14.4 52 11.1 81 81 SW 10 17 29.63 1004 10 16 0.00 0.00
9:54 am 09:54 Mostly Cloudy 60 15.6 52 11.1 75 75 WSW 13 20 29.66 1004 10 16 0.00 0.00
10:38 am 10:38 Mostly Cloudy 63 17.2 49 9.4 60 60 NNW 16 26 29.68 1005 10 16 0.00 0.00
10:54 am 10:54 Mostly Cloudy 64 17.8 48 8.9 56 56 NNW 16 26 29.68 1005 10 16 0.00 0.00
11:54 am 11:54 Mostly Cloudy 63 17.2 45 7.2 52 52 NNW 14 22 29.68 1005 10 16 0.00 0.00
12:54 pm 12:54 Mostly Cloudy 66 18.9 44 6.7 45 45 NNW 9 15 29.66 1004 10 16 0.00 0.00
1:54 pm 13:54 Mostly Cloudy 65 18.3 43 6.1 45 45 WNW 7 11 29.64 1004 10 16 0.00 0.00
1:59 pm 13:59 Mostly Cloudy 65 18.3 43 6.1 45 45 Calm 29.65 1004 10 16 0.00 0.00
2:54 pm 14:54 Mostly Cloudy 66 18.9 41 5 40 40 WNW 7 11 29.64 1004 10 16 0.00 0.00
3:54 pm 15:54 Mostly Cloudy 65 18.3 40 4.4 40 40 NW 12 19 29.66 1004 10 16 0.00 0.00
4:54 pm 16:54 Mostly Cloudy 61 16.1 37 2.8 41 41 NNW 16 26 29.67 1005 10 16 0.00 0.00
5:54 pm 17:54 Mostly Cloudy 57 13.9 38 3.3 49 49 N 10 17 29.68 1005 10 16 0.00 0.00
6:54 pm 18:54 Mostly Cloudy 56 13.3 36 2.2 47 47 NNW 10 17 29.70 1006 10 16 0.00 0.00
7:54 pm 19:54 Cloudy 55 12.8 37 2.8 51 51 N 13 20 29.71 1006 10 16 0.00 0.00
8:54 pm 20:54 Cloudy 53 11.7 36 2.2 52 52 N 12 19 29.71 1006 10 16 0.00 0.00
9:54 pm 21:54 Cloudy 52 11.1 36 2.2 55 55 NE 8 13 29.70 1006 10 16 0.00 0.00
10:54 pm 22:54 Mostly Cloudy 49 9.4 35 1.7 59 59 E 12 19 29.67 1005 10 16 0.00 0.00
11:54 pm 23:54 Cloudy 48 8.9 35 1.7 61 61 E 10 17 29.67 1005 10 16 0.00 0.00

Powered by AerisWeather